Wind_Speed
8 9 8 8 9 9 9 9 8 8 8 8 8 9 8 7 7 8 7 7 8 8 8 8 7 7 7 8 8 8 8 8 8 8 8 9 9 9 10 11 10 10 10
9 9 9 9 10 10 10 9 9 8 8 8 8 9 8 8 8 7 7 7 7 8 8 8 7 7 7 7 8 8 8 7 8 8 9 9 9 9 10 10 10 10 11
9 10 9 9 10 10 9 9 8 8 8 8 8 8 8 8 8 8 8 7 7 7 8 8 8 7 7 7 8 8 8 8 8 9 9 9 9 9 9 10 10 10 11
10 9 10 9 9 9 8 8 8 8 8 8 8 8 8 8 8 8 7 7 7 7 7 8 8 8 8 8 8 8 8 9 9 9 9 9 9 9 9 10 10 11 11
9 9 10 9 8 8 7 8 8 8 8 8 8 8 8 8 8 8 8 8 8 8 8 8 8 8 9 9 9 9 9 9 9 9 9 9 10 10 10 10 11 12 12
10 10 9 9 8 8 7 8 8 8 8 8 8 8 8 8 8 8 8 8 8 8 8 9 9 9 9 10 11 10 10 9 10 10 10 11 10 11 11 12 13 14 14
9 9 9 9 8 8 7 7 7 8 8 8 7 7 8 8 8 8 8 8 8 8 9 9 10 10 11 11 11 12 11 10 10 11 11 11 12 12 13 13 14 14 15
9 9 9 8 8 7 7 7 7 7 8 8 8 8 9 9 9 9 9 9 9 9 9 10 10 10 11 11 12 12 12 11 11 11 12 13 14 14 14 14 14 14 14
9 9 8 8 7 7 7 7 7 7 8 9 9 9 9 9 9 9 9 9 9 9 9 10 10 11 11 11 11 11 11 11 12 12 13 13 14 14 15 15 15 15 15
9 9 8 7 7 8 7 7 8 8 8 8 8 9 9 9 9 9 9 9 9 9 10 11 11 11 11 11 11 11 11 11 12 12 12 13 13 14 14 15 15 15 16
9 8 8 7 8 8 8 8 8 8 8 8 8 8 8 9 9 9 9 9 10 10 10 11 11 11 10 11 11 11 11 12 12 13 13 13 14 14 15 16 16 16 17
9 8 9 9 8 8 8 8 8 8 8 8 8 8 9 9 9 9 10 10 11 11 11 11 11 10 11 10 11 11 11 12 12 13 14 14 14 15 15 16 16 17 17
10 9 9 9 9 9 9 9 9 9 9 9 9 9 9 10 10 10 11 11 11 11 11 11 11 11 11 10 11 11 12 12 12 13 14 15 15 16 16 16 17 17 18
10 10 10 10 10 10 10 11 11 10 10 10 10 10 10 10 10 11 11 11 11 12 12 12 12 12 11 12 12 12 12 13 13 13 14 15 16 16 17 18 18 19 19
12 11 12 12 11 11 12 12 12 12 12 11 11 10 11 10 11 11 12 12 13 12 12 13 13 13 12 13 13 13 13 14 14 14 15 16 17 17 17 17 18 19 20
13 13 13 13 12 13 13 13 13 13 12 12 12 12 12 12 12 12 13 13 13 13 13 13 13 13 13 13 13 13 14 15 16 16 17 17 18 18 18 19 19 20 20
14 14 14 14 14 13 14 14 14 13 13 13 13 13 13 13 13 13 13 13 13 13 13 13 13 13 13 14 14 15 15 16 17 17 18 18 18 19 19 20 20 20 21
15 15 15 15 15 15 15 15 14 14 15 15 15 15 15 14 14 14 13 13 13 13 13 13 13 14 14 15 15 16 16 17 17 18 18 18 19 20 20 20 20 21 22
16 16 16 16 16 16 16 16 16 16 16 16 16 16 16 16 15 15 14 14 14 14 14 15 15 15 16 16 16 16 17 17 18 18 18 18 19 20 20 21 21 22 24
18 18 17 17 17 17 17 17 17 17 17 17 17 17 17 17 16 16 16 15 16 16 16 16 17 17 17 17 17 18 18 19 18 18 19 19 20 21 21 22 23 24 24
19 19 19 19 19 19 18 18 18 18 18 18 18 18 18 18 18 17 17 17 17 17 17 18 18 18 18 19 19 20 20 20 20 20 20 21 22 23 23 23 24 25 25
20 20 20 20 20 20 19 19 19 18 19 19 19 19 19 18 18 18 18 19 19 18 18 19 19 20 20 20 21 21 21 21 21 21 22 23 23 24 25 25 25 26 26
20 20 20 20 20 20 19 19 19 19 19 19 19 19 19 19 19 19 19 18 19 19 19 20 20 21 21 21 21 21 22 22 23 23 24 24 25 25 26 26 26 27 27
20 20 20 20 20 20 20 20 20 20 20 20 20 20 20 20 20 20 20 20 20 20 20 21 22 22 21 22 22 22 23 23 24 24 25 25 25 25 25 26 26 27 28
20 20 20 20 20 20 21 21 20 20 20 20 20 21 21 21 21 21 21 21 21 21 22 22 22 22 22 23 23 23 23 24 24 24 25 25 25 25 26 26 27 28 29
20 21 21 21 20 20 19 19 20 19 20 20 20 20 21 21 21 21 21 21 22 22 22 23 22 22 22 23 24 24 24 24 24 24 25 26 26 26 26 26 28 29 30
Wind_Direction
292 292 292 290 289 289 286 285 285 286 283 282 284 284 287 287 291 291 292 288 281 275 274 279 279 278 284 286 285 285 284 285 286 287 286 291 290 282 279 273 273 265 261
291 292 291 289 288 286 283 282 283 284 283 283 285 284 283 283 285 286 287 288 286 281 275 274 274 275 279 284 284 282 283 284 286 290 294 294 295 291 284 281 278 274 271
291 291 292 290 288 282 281 283 282 281 283 285 281 280 281 281 281 281 282 284 288 288 281 271 272 277 280 286 285 283 284 284 284 287 289 292 293 293 289 286 280 276 276
293 290 290 290 285 283 285 287 280 276 280 282 276 276 280 281 280 281 283 285 286 285 283 277 275 282 286 287 284 286 286 284 283 284 287 290 289 290 289 282 278 278 279
290 288 291 294 288 286 285 286 279 277 277 275 274 275 278 280 282 281 280 281 280 281 283 282 283 286 286 286 286 288 285 278 279 281 286 292 294 293 291 288 284 282 282
288 284 286 290 290 285 287 286 281 277 273 272 274 278 279 280 281 279 279 277 276 279 283 284 286 288 287 285 285 286 284 279 275 276 284 288 293 292 291 291 289 286 286
297 288 287 287 289 283 280 280 276 276 276 276 278 280 280 279 278 278 279 278 278 281 284 287 287 289 287 284 284 284 283 281 277 276 279 283 287 290 290 293 291 288 288
297 301 298 296 295 292 290 285 285 285 283 281 281 282 282 280 279 280 281 280 281 283 286 291 293 293 293 287 286 286 285 286 281 278 279 282 284 288 290 293 293 292 291
295 295 298 298 295 295 294 291 292 289 285 283 282 284 286 286 285 282 281 281 283 286 290 295 297 297 294 292 289 289 289 288 284 281 282 283 285 289 292 293 292 293 293
296 292 296 294 291 290 290 291 292 293 290 291 288 288 287 287 288 286 284 283 284 288 293 295 298 296 293 293 290 292 292 292 289 287 287 288 290 292 293 294 294 293 293
295 290 289 290 288 289 288 288 289 291 290 290 290 290 290 287 286 285 285 284 286 288 292 295 298 301 295 291 291 294 295 294 291 290 289 291 292 293 293 295 295 294 294
284 284 288 287 287 289 287 287 289 287 287 287 286 288 290 288 286 283 283 283 284 287 290 295 296 299 298 295 293 294 295 296 295 291 289 291 294 293 294 295 295 296 297
279 281 285 285 283 285 285 288 291 289 285 284 286 286 284 282 283 282 282 284 285 287 289 293 296 299 299 297 296 294 295 297 298 298 296 293 294 294 294 295 295 297 297
276 278 283 284 280 281 283 286 288 288 286 285 287 286 282 281 279 281 284 288 288 288 287 291 293 296 298 298 297 296 294 293 295 297 299 299 298 297 296 296 297 297 297
277 279 282 285 281 277 280 283 284 284 284 284 285 285 282 281 281 282 285 287 288 288 288 290 291 294 295 295 296 296 295 295 296 297 298 300 300 299 299 299 299 297 296
275 277 279 281 282 281 280 280 282 281 282 283 284 284 283 281 283 286 287 288 286 287 288 288 288 290 291 291 295 297 296 296 297 297 299 300 299 298 298 299 298 298 298
274 276 275 276 279 280 280 279 280 279 280 282 284 283 283 284 283 283 285 286 285 286 288 288 286 291 293 291 293 295 296 297 298 297 299 301 301 300 300 299 298 297 297
275 275 275 275 276 279 280 279 278 279 280 280 281 282 283 283 284 283 283 283 284 284 286 287 288 292 293 293 293 295 297 297 296 297 299 300 302 303 302 300 299 299 299
276 275 277 275 275 279 280 278 275 278 280 280 280 281 282 283 283 283 282 282 283 283 284 287 289 292 293 294 294 295 297 298 299 300 301 302 303 304 303 302 301 300 301
274 273 275 274 275 278 279 278 275 276 279 280 279 280 280 280 280 281 281 280 281 281 283 286 288 291 292 293 293 294 295 297 298 300 301 301 302 303 302 302 301 302 302
276 274 275 274 274 277 277 277 276 276 277 278 278 278 279 279 278 279 280 279 281 281 281 284 286 288 290 290 291 292 293 295 296 298 300 300 300 301 302 301 301 302 302
277 276 275 275 275 275 274 275 275 275 275 276 276 276 278 279 277 278 279 279 280 282 282 283 283 286 287 288 290 291 292 293 296 296 298 300 301 301 302 301 302 301 302
276 277 276 275 276 275 274 274 274 274 274 274 274 274 277 278 278 278 279 281 281 283 285 285 285 286 287 288 290 291 291 291 294 295 296 298 300 301 302 302 302 302 302
274 275 275 275 274 274 275 275 275 274 274 274 274 274 274 275 275 275 277 279 282 284 286 286 288 288 286 288 291 291 292 293 294 296 297 298 300 301 301 301 302 302 303
273 272 272 273 274 275 275 275 275 276 276 275 274 272 271 272 272 273 276 278 281 282 285 286 288 289 289 290 291 292 294 294 294 295 297 298 299 301 301 302 302 302 303
271 272 272 273 274 275 276 278 277 276 278 277 275 274 273 271 271 272 275 278 281 283 284 285 287 288 289 290 290 291 293 294 295 295 296 298 299 300 301 301 301 302 303
Height
5866 5865 5865 5865 5865 5865 5865 5865 5864 5864 5864 5864 5864 5864 5864 5864 5864 5864 5864 5863 5863 5863 5864 5864 5864 5864 5864 5864 5864 5864 5864 5865 5865 5865 5865 5865 5865 5865 5865 5865 5865 5865 5866
5864 5864 5864 5864 5863 5863 5863 5863 5863 5863 5862 5862 5862 5862 5862 5862 5862 5862 5862 5862 5862 5862 5862 5862 5862 5862 5863 5863 5863 5863 5863 5863 5863 5863 5863 5863 5863 5863 5863 5863 5863 5863 5863
5863 5862 5862 5862 5861 5861 5861 5861 5861 5861 5861 5861 5861 5861 5861 5861 5861 5861 5861 5861 5861 5861 5860 5861 5861 5861 5861 5861 5861 5861 5861 5861 5861 5861 5861 5861 5861 5861 5861 5861 5861 5861 5861
5861 5861 5860 5860 5860 5859 5859 5859 5859 5859 5859 5859 5859 5859 5859 5859 5859 5859 5859 5859 5859 5859 5859 5859 5859 5859 5859 5859 5859 5859 5859 5859 5859 5859 5859 5859 5859 5859 5859 5859 5858 5858 5858
5859 5859 5859 5859 5858 5858 5858 5857 5857 5857 5857 5857 5857 5857 5857 5857 5857 5857 5857 5857 5857 5857 5858 5857 5857 5857 5857 5857 5857 5857 5856 5857 5857 5857 5857 5857 5857 5857 5857 5856 5856 5856 5856
5857 5857 5857 5857 5857 5856 5856 5856 5855 5855 5856 5856 5856 5856 5855 5855 5856 5856 5856 5856 5856 5856 5856 5856 5856 5855 5855 5855 5854 5854 5854 5854 5854 5854 5855 5855 5855 5855 5854 5854 5853 5853 5853
5856 5856 5855 5855 5855 5855 5855 5854 5854 5854 5854 5854 5854 5854 5854 5854 5854 5854 5854 5854 5854 5854 5854 5854 5854 5853 5853 5852 5852 5852 5851 5851 5851 5852 5852 5852 5852 5852 5851 5851 5850 5850 5849
5854 5854 5854 5854 5854 5853 5853 5853 5852 5852 5852 5852 5852 5852 5852 5853 5852 5852 5852 5852 5852 5852 5852 5852 5851 5851 5850 5850 5849 5849 5848 5848 5848 5849 5849 5849 5849 5849 5848 5848 5847 5846 5846
5852 5852 5852 5852 5852 5852 5852 5851 5851 5851 5851 5851 5850 5850 5850 5850 5850 5850 5850 5850 5850 5850 5850 5850 5849 5848 5848 5847 5846 5846 5845 5845 5845 5846 5846 5846 5846 5845 5845 5844 5843 5843 5842
5851 5851 5851 5850 5850 5850 5850 5850 5849 5849 5849 5849 5848 5848 5848 5848 5848 5848 5849 5848 5848 5848 5848 5847 5847 5846 5845 5845 5844 5843 5843 5843 5843 5843 5843 5843 5842 5842 5841 5841 5840 5839 5838
5849 5849 5849 5849 5849 5848 5848 5848 5848 5847 5847 5847 5846 5846 5846 5846 5846 5846 5846 5846 5846 5846 5846 5845 5844 5843 5842 5842 5841 5841 5840 5840 5840 5840 5840 5839 5839 5838 5838 5837 5836 5835 5834
5847 5847 5847 5847 5847 5847 5847 5846 5846 5845 5845 5845 5844 5844 5844 5844 5844 5844 5844 5844 5844 5843 5843 5842 5842 5841 5840 5839 5839 5838 5838 5837 5837 5837 5836 5836 5835 5835 5834 5833 5832 5831 5830
5844 5845 5844 5844 5844 5844 5844 5844 5844 5843 5842 5842 5842 5842 5842 5841 5841 5841 5841 5841 5841 5841 5840 5840 5839 5838 5838 5837 5837 5836 5835 5835 5834 5834 5833 5832 5832 5831 5830 5829 5828 5827 5825
5841 5842 5842 5842 5841 5842 5841 5841 5841 5841 5840 5840 5839 5839 5839 5839 5839 5839 5838 5838 5838 5838 5838 5837 5836 5836 5835 5834 5834 5833 5832 5832 5831 5830 5830 5829 5828 5827 5826 5825 5823 5822 5821
5838 5839 5839 5839 5839 5838 5838 5838 5838 5838 5837 5837 5836 5836 5836 5836 5836 5836 5835 5835 5835 5835 5835 5834 5834 5833 5832 5832 5831 5830 5829 5829 5828 5827 5826 5825 5824 5823 5821 5820 5819 5817 5815
5835 5835 5835 5835 5835 5835 5835 5835 5835 5834 5834 5834 5833 5833 5833 5833 5833 5832 5832 5831 5831 5831 5831 5831 5830 5830 5829 5828 5828 5827 5826 5825 5824 5823 5822 5821 5820 5818 5817 5815 5814 5812 5810
5831 5832 5832 5832 5832 5831 5831 5831 5831 5831 5830 5830 5830 5830 5830 5829 5829 5829 5828 5828 5828 5828 5827 5827 5827 5826 5826 5825 5824 5823 5822 5822 5820 5819 5818 5817 5815 5814 5812 5810 5808 5806 5804
5827 5827 5827 5828 5827 5827 5827 5827 5827 5827 5827 5827 5826 5826 5826 5826 5825 5825 5825 5824 5824 5824 5824 5824 5823 5823 5822 5821 5820 5820 5819 5818 5816 5815 5814 5812 5810 5809 5807 5805 5802 5800 5798
5823 5823 5823 5823 5823 5823 5823 5822 5823 5823 5822 5822 5822 5822 5822 5822 5821 5821 5821 5821 5820 5820 5820 5820 5819 5818 5818 5817 5816 5815 5814 5813 5812 5811 5809 5807 5805 5803 5801 5799 5797 5795 5792
5818 5818 5818 5818 5818 5818 5818 5817 5817 5818 5818 5818 5818 5817 5817 5817 5817 5817 5817 5816 5816 5816 5815 5815 5815 5814 5813 5812 5812 5811 5810 5809 5807 5806 5804 5802 5800 5798 5796 5793 5791 5789 5786
5813 5813 5813 5813 5813 5813 5812 5812 5812 5812 5813 5812 5812 5812 5812 5812 5812 5812 5812 5811 5811 5811 5810 5810 5810 5809 5808 5807 5806 5805 5804 5803 5802 5801 5799 5797 5795 5792 5790 5787 5785 5782 5780
5807 5807 5807 5807 5807 5807 5807 5806 5806 5806 5807 5807 5807 5807 5807 5807 5807 5806 5806 5806 5806 5806 5805 5805 5804 5804 5803 5802 5801 5799 5798 5797 5796 5795 5793 5791 5789 5786 5784 5781 5778 5776 5773
5801 5801 5801 5801 5801 5801 5801 5800 5800 5800 5801 5801 5801 5801 5801 5801 5801 5801 5800 5800 5800 5800 5800 5799 5798 5798 5797 5796 5794 5793 5792 5791 5790 5788 5786 5784 5782 5780 5777 5774 5772 5769 5766
5795 5796 5796 5795 5795 5795 5795 5794 5794 5794 5794 5794 5794 5794 5795 5795 5795 5795 5795 5794 5794 5794 5793 5793 5792 5791 5790 5789 5788 5787 5786 5784 5783 5781 5779 5778 5775 5773 5770 5767 5764 5761 5758
5789 5789 5790 5789 5789 5789 5789 5788 5788 5788 5788 5788 5788 5788 5788 5788 5788 5788 5788 5788 5788 5787 5786 5786 5785 5784 5783 5782 5781 5780 5779 5778 5776 5775 5772 5770 5768 5766 5763 5760 5757 5754 5751
5783 5783 5783 5783 5783 5783 5783 5782 5782 5782 5782 5782 5781 5781 5781 5781 5781 5781 5781 5781 5781 5780 5780 5779 5778 5777 5776 5775 5774 5773 5771 5770 5769 5768 5765 5763 5761 5758 5756 5753 5750 5746 5743